Location: Gadern
(49.5873°N, 8.8138°E)
Time: 06:36:45
(UTC+00:00)

DELTA 2 DEB (DPAF) - Pass Details

Date: 19 May 2025
Orbit: 538 x 548 km, 98.4° (Epoch: 14 June)

Event Time Altitude Azimuth Distance (km) Brightness Sun altitude
Rises 21:02:22 0° 21° (NNE) 2,731 7.9 -13.9°
Reaches altitude 10° 21:04:38 10° 29° (NNE) 1,829 6.8 -14.1°
Maximum altitude 21:08:20 38° 99° (E) 842 4.4 -14.5°
Enters shadow 21:09:54 26° 146° (SSE) 1,084 4.7 -14.6°
